Location: Fort Wayne
(41.1310°N, 85.1290°W)
Time: 02:05:01
(UTC-04:00)

COSMOS 2428 - Visible Passes

Search period start: 21 September 2014 00:00
Search period end: 01 October 2014 00:00
Orbit: 845 x 857 km, 71.0° (Epoch: 20 September)

Date Brightness Start Highest point End Pass type
(mag) Time Alt. Az. Time Alt. Az. Time Alt. Az.
21 Sep 5.4 02:45:46 13° N 02:45:46 13° N 02:46:25 10° NNE visible
22 Sep 5.5 02:33:50 12° NNE 02:33:50 12° NNE 02:34:10 10° NNE visible
23 Sep 5.6 02:21:53 10° NNE 02:21:53 10° NNE 02:21:55 10° NNE visible
